Location: Menands
(42.6920°N, 73.7246°W)
Time: 07:54:08
(UTC+00:00)

Resurs 1-3 - Pass Details

Date: 18 February 2026
Orbit: 612 x 615 km, 97.7° (Epoch: 8 March)

Event Time Altitude Azimuth Distance (km) Brightness Sun altitude
Rises 23:05:05 0° 160° (SSE) 2,869 6.9 -7.0°
Reaches altitude 10° 23:07:16 10° 158° (SSE) 1,968 6.0 -7.4°
Maximum altitude 23:11:31 69° 75° (ENE) 661 3.5 -8.2°
Drops below altitude 10° 23:15:48 10° 353° (N) 1,982 6.2 -9.0°
Sets 23:17:59 0° 351° (N) 2,891 7.0 -9.4°
